Орийак

Франция     44°54′46″N   2°25′50″E
темп.,
°C
ветер,
м/с
пор.,
м/с
влажн.,
%
обл.,
%
осадки,
мм/ч
давл.,
гПа
погр.,
м
14 апреля, ср
ср1423:000всв3676100 0.0 1027162
02:00−2всв35775 0.0 1026110
05:00−2всв2475100 0.0 102582
08:00−1всв2466100 0.0 1025108
11:00+8всв122888 0.0 1022873
14:00+11св22220 0.0 10201961
17:00+10ссв43300 0.0 10191572
20:00+5св49460 0.0 1022648
15 апреля, чт
чт1523:000всв37640 0.0 1024206
02:00−2всв36770 0.0 1025174
05:00−3всв25792 0.0 1024104
08:00−2всв26751 0.0 1024161
11:00+6св23330 0.0 10221133
14:00+10всв22273 0.0 10202055
17:00+9св433124 0.0 10182092
20:00+5св48455 0.0 1020781
16 апреля, пт
пт1623:00+1всв310615 0.0 1022423
02:00−2всв257636 0.0 1022132
05:00−2всв24805 0.0 102180
08:00−2св267514 0.0 1021143
11:00+6св45365 0.0 10191842
14:00+8св4430100 0.0 10172905
17:00+7ссв343591 0.0 10172089
20:00+4ссв485552 0.1 1019941
17 апреля, сб
сб1723:00−1ссв27838 0.0 1022216
02:00−2св249389 0.0 1021129
05:00−2св239394 0.0 1021101
08:00−1св148440 0.0 1021111
11:00+7с26411 0.0 10181275
14:00+10с45344 0.0 10171999
17:00+9с454115 0.0 10171814
20:00+5с38696 0.0 1019824
18 апреля, вс
вс1823:00+3с387991 0.1 1021940
02:00+1ссз148566 0.1 1022233
05:00−1с229914 0.0 102249
08:00−1с13936 0.0 102396
11:00+7с375340 0.0 10201395
14:00+10с474460 0.0 10191799
17:00+10с464745 0.0 10181706
20:00+7с26636 0.0 1020668